• In Hungary
  • List of Countries
  • For 7 days
  • Water Temperature
  • Satellite Maps
  • Weather Map
  • News
  • Weather Widgets
  • user-avatar
    Login

    Hourly Weather Borownica

    Today, 28 May, Monday

    Time Temperature Precipitation Wind Pressure Humidity
    00:00 +16°C° 0 mm 2 mps 748 mmHg 93%
    01:00 +16°C° 0 mm 2 mps 748 mmHg 93%
    02:00 +16°C° 0 mm 2 mps 748 mmHg 93%
    03:00 +15°C° 0 mm 2 mps 748 mmHg 93%
    04:00 +15°C° 0 mm 2 mps 748 mmHg 92%
    05:00 +16°C° 0 mm 3 mps 748 mmHg 86%
    06:00 +18°C° 0 mm 3 mps 748 mmHg 79%
    07:00 +20°C° 0 mm 3 mps 749 mmHg 73%
    08:00 +21°C° 0 mm 4 mps 749 mmHg 67%
    09:00 +22°C° 0 mm 4 mps 749 mmHg 61%
    10:00 +23°C° 0 mm 5 mps 749 mmHg 55%
    11:00 +25°C° 0 mm 5 mps 749 mmHg 54%
    12:00 +25°C° 0 mm 5 mps 749 mmHg 52%
    13:00 +26°C° 0 mm 5 mps 749 mmHg 51%
    14:00 +25°C° 0 mm 5 mps 748 mmHg 52%
    15:00 +25°C° 0 mm 5 mps 748 mmHg 53%
    16:00 +25°C° 0 mm 5 mps 748 mmHg 55%
    17:00 +22°C° 0 mm 5 mps 748 mmHg 61%
    18:00 +21°C° 0 mm 4 mps 748 mmHg 67%
    19:00 +19°C° 0 mm 3 mps 748 mmHg 73%
    20:00 +18°C° 0 mm 3 mps 748 mmHg 74%
    21:00 +17°C° 0 mm 3 mps 748 mmHg 76%
    22:00 +16°C° 0 mm 3 mps 748 mmHg 78%
    23:00 +16°C° 0 mm 3 mps 748 mmHg 79%

    Tomorrow, 29 May, Tuesday

    Time Temperature Precipitation Wind Pressure Humidity
    00:00 +14°C° 0 mm 3 mps 748 mmHg 80%
    01:00 +14°C° 0 mm 3 mps 748 mmHg 81%
    02:00 +13°C° 0 mm 4 mps 748 mmHg 82%
    03:00 +13°C° 0 mm 4 mps 748 mmHg 82%
    04:00 +13°C° 0 mm 4 mps 748 mmHg 83%
    05:00 +15°C° 0 mm 4 mps 748 mmHg 78%
    06:00 +16°C° 0 mm 5 mps 748 mmHg 73%
    07:00 +19°C° 0 mm 5 mps 748 mmHg 68%
    08:00 +20°C° 0 mm 5 mps 748 mmHg 63%
    09:00 +22°C° 0 mm 5 mps 748 mmHg 59%
    10:00 +23°C° 0 mm 6 mps 748 mmHg 55%
    11:00 +24°C° 0 mm 6 mps 747 mmHg 53%
    12:00 +24°C° 0 mm 6 mps 747 mmHg 51%
    13:00 +26°C° 0 mm 6 mps 746 mmHg 50%
    14:00 +26°C° 0 mm 6 mps 746 mmHg 52%
    15:00 +26°C° 0 mm 5 mps 746 mmHg 54%
    16:00 +25°C° 0 mm 5 mps 745 mmHg 56%
    17:00 +23°C° 0 mm 5 mps 745 mmHg 63%
    18:00 +22°C° 0 mm 4 mps 745 mmHg 69%
    19:00 +20°C° 0 mm 3 mps 745 mmHg 76%
    20:00 +19°C° 0 mm 3 mps 745 mmHg 79%
    21:00 +18°C° 0 mm 3 mps 745 mmHg 82%
    22:00 +17°C° 0 mm 3 mps 745 mmHg 85%
    23:00 +17°C° 0 mm 3 mps 744 mmHg 86%

    Day after tomorrow, 30 May, Wednesday

    Time Temperature Precipitation Wind Pressure Humidity
    00:00 +16°C° 0 mm 3 mps 744 mmHg 87%
    01:00 +16°C° 0 mm 3 mps 744 mmHg 88%
    02:00 +16°C° 0 mm 3 mps 744 mmHg 89%
    03:00 +14°C° 0 mm 3 mps 743 mmHg 90%
    04:00 +14°C° 0 mm 3 mps 743 mmHg 91%
    05:00 +17°C° 0 mm 3 mps 743 mmHg 85%
    06:00 +19°C° 0 mm 3 mps 743 mmHg 79%
    07:00 +20°C° 0 mm 3 mps 743 mmHg 72%
    08:00 +22°C° 0 mm 3 mps 743 mmHg 66%
    09:00 +25°C° 0 mm 3 mps 743 mmHg 59%
    10:00 +27°C° 0 mm 3 mps 743 mmHg 53%
    11:00 +27°C° 0 mm 3 mps 743 mmHg 50%
    12:00 +28°C° 0 mm 3 mps 743 mmHg 48%
    13:00 +29°C° 0 mm 3 mps 742 mmHg 46%
    14:00 +28°C° 0 mm 3 mps 742 mmHg 47%
    15:00 +28°C° 0 mm 3 mps 742 mmHg 49%
    16:00 +28°C° 0 mm 3 mps 741 mmHg 51%
    17:00 +26°C° 0.2 mm 3 mps 741 mmHg 59%
    18:00 +24°C° 0.2 mm 3 mps 741 mmHg 68%
    19:00 +22°C° 0.2 mm 3 mps 740 mmHg 77%
    20:00 +20°C° 0 mm 2 mps 740 mmHg 81%
    21:00 +19°C° 0 mm 2 mps 740 mmHg 85%
    22:00 +18°C° 0 mm 2 mps 740 mmHg 89%
    23:00 +18°C° 0 mm 2 mps 740 mmHg 89%

    31 May, Thursday

    Time Temperature Precipitation Wind Pressure Humidity
    00:00 +18°C° 0 mm 2 mps 740 mmHg 90%
    01:00 +17°C° 0 mm 2 mps 740 mmHg 90%
    02:00 +17°C° 0 mm 2 mps 739 mmHg 90%
    03:00 +16°C° 0 mm 1 mps 739 mmHg 90%
    04:00 +16°C° 0 mm 1 mps 739 mmHg 90%
    05:00 +19°C° 0 mm 1 mps 739 mmHg 84%
    06:00 +20°C° 0 mm 1 mps 739 mmHg 77%
    07:00 +22°C° 0 mm 1 mps 739 mmHg 71%
    08:00 +23°C° 0 mm 1 mps 739 mmHg 65%
    09:00 +25°C° 0 mm 1 mps 739 mmHg 59%
    10:00 +26°C° 0 mm 1 mps 739 mmHg 53%
    11:00 +27°C° 0.1 mm 1 mps 738 mmHg 51%
    12:00 +28°C° 0.1 mm 1 mps 738 mmHg 48%
    13:00 +29°C° 0.1 mm 1 mps 738 mmHg 46%
    14:00 +28°C° 0.2 mm 1 mps 738 mmHg 50%
    15:00 +27°C° 0.2 mm 2 mps 737 mmHg 53%
    16:00 +27°C° 0.2 mm 2 mps 737 mmHg 57%
    17:00 +24°C° 1.3 mm 2 mps 737 mmHg 66%
    18:00 +21°C° 1.3 mm 3 mps 737 mmHg 75%
    19:00 +19°C° 1.3 mm 3 mps 737 mmHg 84%
    20:00 +19°C° 1 mm 3 mps 737 mmHg 87%
    21:00 +18°C° 1 mm 3 mps 738 mmHg 89%
    22:00 +17°C° 1 mm 3 mps 738 mmHg 91%
    23:00 +17°C° 0.5 mm 4 mps 738 mmHg 92%

    1 June, Friday

    Time Temperature Precipitation Wind Pressure Humidity
    00:00 +17°C° 0.5 mm 4 mps 738 mmHg 93%
    01:00 +15°C° 0.5 mm 5 mps 738 mmHg 94%
    02:00 +15°C° 0.1 mm 5 mps 738 mmHg 93%
    03:00 +14°C° 0.1 mm 5 mps 739 mmHg 91%
    04:00 +14°C° 0.1 mm 6 mps 739 mmHg 90%
    05:00 +14°C° 0 mm 6 mps 739 mmHg 85%
    06:00 +14°C° 0 mm 6 mps 740 mmHg 80%
    07:00 +14°C° 0 mm 6 mps 740 mmHg 76%
    08:00 +15°C° 0 mm 7 mps 741 mmHg 70%
    09:00 +16°C° 0 mm 7 mps 741 mmHg 65%
    10:00 +17°C° 0 mm 7 mps 742 mmHg 59%
    11:00 +18°C° 0.1 mm 7 mps 742 mmHg 59%
    12:00 +18°C° 0.1 mm 7 mps 742 mmHg 60%
    13:00 +18°C° 0.1 mm 7 mps 742 mmHg 60%
    14:00 +19°C° 0.1 mm 6 mps 742 mmHg 61%
    15:00 +17°C° 0.1 mm 5 mps 742 mmHg 61%
    16:00 +17°C° 0.1 mm 5 mps 743 mmHg 62%
    17:00 +17°C° 0.1 mm 4 mps 743 mmHg 65%
    18:00 +15°C° 0.1 mm 4 mps 743 mmHg 68%
    19:00 +14°C° 0.1 mm 4 mps 743 mmHg 72%
    20:00 +13°C° 0 mm 4 mps 744 mmHg 72%
    21:00 +12°C° 0 mm 4 mps 744 mmHg 73%
    22:00 +11°C° 0 mm 3 mps 744 mmHg 73%
    23:00 +10°C° 0 mm 3 mps 744 mmHg 73%

    2 June, Saturday

    Time Temperature Precipitation Wind Pressure Humidity
    00:00 +9°C° 0 mm 3 mps 744 mmHg 73%
    01:00 +9°C° 0 mm 3 mps 744 mmHg 73%
    02:00 +8°C° 0 mm 3 mps 744 mmHg 75%
    03:00 +8°C° 0 mm 3 mps 745 mmHg 77%
    04:00 +7°C° 0 mm 3 mps 745 mmHg 79%
    05:00 +8°C° 0 mm 4 mps 745 mmHg 72%
    06:00 +10°C° 0 mm 5 mps 745 mmHg 65%
    07:00 +11°C° 0 mm 6 mps 745 mmHg 59%
    08:00 +13°C° 0 mm 6 mps 745 mmHg 56%
    09:00 +14°C° 0 mm 6 mps 745 mmHg 52%
    10:00 +15°C° 0 mm 7 mps 745 mmHg 49%
    11:00 +16°C° 0 mm 7 mps 744 mmHg 49%
    12:00 +16°C° 0 mm 6 mps 744 mmHg 49%
    13:00 +16°C° 0 mm 6 mps 744 mmHg 49%
    14:00 +16°C° 0.1 mm 6 mps 744 mmHg 53%
    15:00 +15°C° 0.1 mm 5 mps 744 mmHg 57%
    16:00 +15°C° 0.1 mm 5 mps 744 mmHg 61%
    17:00 +14°C° 0.1 mm 4 mps 743 mmHg 67%
    18:00 +13°C° 0.1 mm 4 mps 743 mmHg 73%
    19:00 +12°C° 0.1 mm 3 mps 743 mmHg 79%
    20:00 +11°C° 0.2 mm 3 mps 743 mmHg 81%
    21:00 +11°C° 0.2 mm 3 mps 743 mmHg 84%
    22:00 +11°C° 0.2 mm 3 mps 743 mmHg 86%
    23:00 +10°C° 0.6 mm 4 mps 742 mmHg 87%
    Show more